Tracking 19176 objects as of 26-May-2018
HD Live streaming from Space Station
objects crossing your sky now

FLOCK 3P 38

Track FLOCK 3P 38 now!
10-day predictions
FLOCK 3P 38 is classified as:


NORAD ID: 42037
Int'l Code: 2017-008CT
Perigee: 493.5 km
Apogee: 506.4 km
Inclination: 97.5 °
Period: 94.5 minutes
Semi major axis: 6870 km
RCS: Unknown
Launch date: February 15, 2017
Source: United States (US)
Launch site: SRIHARIKOTA (SRI)
aabbcc
Your satellite tracking list
Your tracking list is empty




NASA's NSSDC Master Catalog

Two Line Element Set (TLE):
1 42037U 17008CT  18146.17769793  .00001626  00000-0  69398-4 0  9995
2 42037  97.4514 211.2574 0009370  93.5939 266.6370 15.24325385 70709
Source of the keplerian elements: AFSPC